This demonstration page uses our WeatherBlox Daily Observations layout. Learn more.

Left ArrowRight Arrow

39.51506, -84.39828

Hourly Observations for November 15, 2021

Temp ( °F °C ) Dew Point ( °F °C ) Humidity (%) Winds ( mph kmh ) Pressure ( in mb ) Visibility ( mi km ) Precip ( " mm )
12:15 am 00:15 Cloudy 36 2 26 -3.1 69 69 W 16 26 30.02 1017 10 16 0.00 0.00
12:35 am 00:35 Cloudy 35 1.9 26 -3.1 70 70 W 16 26 30.03 1017 10 16 0.00 0.00
12:55 am 00:55 Mostly Cloudy 35 1.6 26 -3.2 71 71 W 16 26 30.04 1017 10 16 0.00 0.00
1:15 am 01:15 Mostly Cloudy 35 1.8 26 -3.1 70 70 W 22 35 30.04 1017 10 16 0.00 0.00
1:35 am 01:35 Cloudy 35 1.6 27 -2.9 72 72 W 14 22 30.05 1018 10 16 0.00 0.00
1:55 am 01:55 Cloudy 35 1.7 27 -2.8 72 72 W 13 20 30.05 1018 10 16 0.00 0.00
2:15 am 02:15 Cloudy 35 1.7 27 -2.6 73 73 WNW 12 19 30.06 1018 10 16 0.00 0.00
2:35 am 02:35 Cloudy 35 1.7 28 -2.5 74 74 WNW 13 20 30.07 1018 10 16 0.00 0.00
2:55 am 02:55 Mostly Cloudy 34 1 27 -3 75 75 WNW 15 24 30.08 1019 10 16 0.00 0.00
3:15 am 03:15 Partly Cloudy 34 1.2 27 -2.6 76 76 WNW 12 19 30.09 1019 10 16 0.00 0.00
3:35 am 03:35 Mostly Cloudy 35 1.4 28 -2.5 76 76 WNW 10 17 30.09 1019 10 16 0.00 0.00
3:55 am 03:55 Cloudy 34 1.2 28 -2.4 77 77 W 12 19 30.10 1019 10 16 0.00 0.00
4:15 am 04:15 Cloudy 34 1 28 -2.5 78 78 W 7 11 30.10 1019 10 16 0.00 0.00
4:35 am 04:35 Partly Cloudy 33 0.3 28 -2.5 82 82 WNW 6 9 30.10 1019 10 16 0.00 0.00
4:55 am 04:55 Clear 33 0.3 28 -2.4 82 82 W 9 15 30.11 1020 10 16 0.00 0.00
5:15 am 05:15 Clear 32 0 28 -2.5 83 83 WNW 7 11 30.13 1020 10 16 0.00 0.00
5:35 am 05:35 Clear 32 0 28 -2.5 83 83 W 6 9 30.14 1020 10 16 0.00 0.00
5:55 am 05:55 Clear 32 0 28 -2.5 83 83 W 7 11 30.14 1020 10 16 0.00 0.00
6:15 am 06:15 Clear 32 -0.2 27 -2.6 84 84 W 5 7 30.14 1021 10 16 0.00 0.00
6:35 am 06:35 Clear 31 -0.4 27 -2.7 85 85 W 6 9 30.15 1021 10 16 0.00 0.00
6:55 am 06:55 Clear 31 -0.5 27 -2.7 85 85 W 5 7 30.16 1021 10 16 0.00 0.00
7:15 am 07:15 Clear 32 -0.2 27 -2.6 84 84 W 10 17 30.17 1022 10 16 0.00 0.00
7:35 am 07:35 Sunny 32 -0.1 28 -2.5 84 84 W 7 11 30.18 1022 10 16 0.00 0.00
7:55 am 07:55 Partly Cloudy 32 -0.1 28 -2.3 85 85 WSW 6 9 30.19 1022 10 16 0.00 0.00
8:15 am 08:15 Partly Cloudy 32 0.1 28 -2.4 83 83 WSW 7 11 30.20 1023 10 16 0.00 0.00
8:35 am 08:35 Sunny 33 0.4 29 -1.9 85 85 SW 7 11 30.21 1023 10 16 0.00 0.00
8:55 am 08:55 Sunny 35 1.6 28 -2.4 75 75 WSW 8 13 30.21 1023 10 16 0.00 0.00
9:15 am 09:15 Sunny 36 2.1 28 -2.5 72 72 WSW 10 17 30.22 1023 10 16 0.00 0.00
9:35 am 09:35 Sunny 37 2.5 27 -2.7 69 69 W 9 15 30.22 1023 10 16 0.00 0.00
9:55 am 09:55 Sunny 37 2.9 27 -2.8 66 66 W 10 17 30.22 1023 10 16 0.00 0.00
10:15 am 10:15 Partly Cloudy 38 3.4 27 -2.6 65 65 WSW 7 11 30.22 1023 10 16 0.00 0.00
10:35 am 10:35 Partly Cloudy 39 3.7 27 -2.9 62 62 WSW 9 15 30.23 1024 10 16 0.00 0.00
10:55 am 10:55 Partly Cloudy 40 4.4 28 -2.2 63 63 W 10 17 30.23 1024 10 16 0.00 0.00
11:15 am 11:15 Partly Cloudy 39 4.1 26 -3.1 60 60 WSW 10 17 30.22 1024 10 16 0.00 0.00
11:35 am 11:35 Partly Cloudy 39 4.1 25 -3.8 57 57 WSW 12 19 30.22 1024 10 16 0.00 0.00
11:55 am 11:55 Sunny 40 4.2 25 -3.7 57 57 WSW 13 20 30.21 1023 10 16 0.00 0.00
12:15 pm 12:15 Sunny 40 4.4 25 -4.1 54 54 WSW 12 19 30.20 1023 10 16 0.00 0.00
12:35 pm 12:35 Sunny 41 5.1 26 -3.5 54 54 WSW 12 19 30.19 1022 10 16 0.00 0.00
12:55 pm 12:55 Partly Cloudy 41 5.1 25 -3.9 53 53 WSW 15 24 30.19 1022 10 16 0.00 0.00
1:15 pm 13:15 Partly Cloudy 41 5.2 24 -4.3 51 51 SW 10 17 30.18 1022 10 16 0.00 0.00
1:35 pm 13:35 Mostly Cloudy 42 5.7 24 -4.3 49 49 WSW 12 19 30.18 1022 10 16 0.00 0.00
1:55 pm 13:55 Cloudy 42 5.7 24 -4.5 48 48 WSW 12 19 30.17 1022 10 16 0.00 0.00
2:15 pm 14:15 Cloudy 42 5.8 23 -4.8 47 47 W 14 22 30.17 1022 10 16 0.00 0.00
2:35 pm 14:35 Cloudy 42 5.6 24 -4.3 49 49 WSW 10 17 30.16 1021 10 16 0.00 0.00
2:55 pm 14:55 Cloudy 42 5.4 24 -4.4 50 50 WSW 12 19 30.16 1021 10 16 0.00 0.00
3:15 pm 15:15 Cloudy 41 5.2 25 -4.1 51 51 WSW 9 15 30.16 1021 10 16 0.00 0.00
3:35 pm 15:35 Cloudy 42 5.3 25 -4 51 51 W 14 22 30.17 1022 10 16 0.00 0.00
3:55 pm 15:55 Cloudy 41 5.1 25 -4.1 52 52 WSW 13 20 30.17 1022 10 16 0.00 0.00
4:15 pm 16:15 Cloudy 41 5 24 -4.2 52 52 W 10 17 30.18 1022 10 16 0.00 0.00
4:35 pm 16:35 Cloudy 41 4.8 25 -4.1 53 53 WSW 12 19 30.18 1022 10 16 0.00 0.00
4:55 pm 16:55 Cloudy 40 4.5 26 -3.6 56 56 W 8 13 30.17 1022 10 16 0.00 0.00
5:15 pm 17:15 Cloudy 40 4.4 26 -3.4 57 57 WSW 6 9 30.16 1021 10 16 0.00 0.00
5:35 pm 17:35 Cloudy 40 4.3 26 -3.3 58 58 W 5 7 30.17 1022 10 16 0.00 0.00
5:55 pm 17:55 Cloudy 40 4.2 27 -3 60 60 SSW 9 15 30.16 1021 10 16 0.00 0.00
6:15 pm 18:15 Cloudy 40 4.3 27 -3 59 59 WSW 7 11 30.17 1022 10 16 0.00 0.00
6:35 pm 18:35 Cloudy 40 4.2 27 -2.6 62 62 SW 10 17 30.17 1022 10 16 0.00 0.00
6:55 pm 18:55 Cloudy with Drizzle 38 3.5 30 -1.3 71 71 SW 10 17 30.18 1022 10 16 0.00 0.00
7:15 pm 19:15 Cloudy 38 3.4 30 -1 73 73 WSW 7 11 30.17 1022 10 16 0.00 0.00
7:35 pm 19:35 Cloudy 38 3.3 30 -0.9 74 74 WSW 7 11 30.17 1022 10 16 0.00 0.00
7:55 pm 19:55 Cloudy 38 3.2 31 -0.7 76 76 WSW 8 13 30.18 1022 10 16 0.00 0.00
8:15 pm 20:15 Cloudy 37 3 32 -0.1 80 80 WSW 6 9 30.18 1022 10 16 0.00 0.00
8:35 pm 20:35 Cloudy with Light Rain 37 2.8 32 0.1 83 83 WSW 7 11 30.19 1022 10 16 0.00 0.00
8:55 pm 20:55 Cloudy 37 2.8 33 0.3 84 84 SW 7 11 30.19 1022 10 16 0.00 0.00
9:15 pm 21:15 Cloudy 37 2.7 33 0.6 86 86 WSW 5 7 30.19 1022 10 16 0.00 0.00
9:35 pm 21:35 Cloudy 37 2.8 33 0.8 87 87 SW 3 6 30.20 1023 10 16 0.00 0.00
9:55 pm 21:55 Cloudy 37 2.7 34 0.9 88 88 W 3 6 30.19 1022 10 16 0.00 0.00
10:15 pm 22:15 Cloudy 37 2.7 33 0.8 87 87 W 3 6 30.19 1022 10 16 0.00 0.00
10:35 pm 22:35 Cloudy 37 2.7 34 0.9 88 88 Calm 30.19 1022 10 16 0.00 0.00
10:55 pm 22:55 Cloudy 37 2.8 34 1.1 89 89 Calm 30.18 1022 10 16 0.00 0.00
11:15 pm 23:15 Cloudy 37 2.9 33 0.7 86 86 Calm 30.18 1022 10 16 0.00 0.00
11:35 pm 23:35 Cloudy 37 3 33 0.7 85 85 SSW 3 6 30.17 1022 10 16 0.00 0.00
11:55 pm 23:55 Cloudy 38 3.1 32 0.2 81 81 Calm 30.17 1022 10 16 0.00 0.00

Powered by AerisWeather